This is the latest recevied weather packets stored in our database for station/object KG5TTF. If no packets are shown the sender has not sent any weather packets the latest 10 day(s).
| Time | Temp. | Humidity | Pressure | Rain* | Wind** | Luminosity | Snow |
|---|---|---|---|---|---|---|---|
| 1777735094 | 11.11° C | 32% | 1027 hPa | 0 mm | - | 488 W/m² | - |
| 1777734790 | 10.56° C | 34% | 1027.1 hPa | 0 mm | - | 472 W/m² | - |
| 1777734488 | 10.56° C | 35% | 1027.1 hPa | 0 mm | - | 455 W/m² | - |
| 1777734184 | 10° C | 34% | 1027 hPa | 0 mm | - | 435 W/m² | - |
| 1777733881 | 10° C | 34% | 1027.1 hPa | 0 mm | - | 418 W/m² | - |
| 1777733577 | 9.44° C | 36% | 1027.1 hPa | 0 mm | - | 400 W/m² | - |
| 1777733274 | 8.89° C | 38% | 1027.2 hPa | 0 mm | - | 382 W/m² | - |
| 1777732971 | 8.89° C | 37% | 1027.1 hPa | 0 mm | - | 48 W/m² | - |
| 1777732667 | 8.89° C | 37% | 1027.2 hPa | 0 mm | - | 47 W/m² | - |
| 1777732364 | 8.33° C | 37% | 1027 hPa | 0 mm | - | 46 W/m² | - |
| 1777732062 | 8.33° C | 36% | 1027.1 hPa | 0 mm | - | 45 W/m² | - |
| 1777731759 | 8.33° C | 37% | 1027 hPa | 0 mm | - | 44 W/m² | - |
| 1777731456 | 7.78° C | 39% | 1027 hPa | 0 mm | - | 43 W/m² | - |
| 1777731154 | 7.78° C | 38% | 1027 hPa | 0 mm | - | 43 W/m² | - |
| 1777730852 | 7.78° C | 38% | 1026.9 hPa | 0 mm | - | 42 W/m² | - |
| 1777730549 | 7.22° C | 39% | 1027 hPa | 0 mm | - | 42 W/m² | - |
| 1777730244 | 7.22° C | 38% | 1027.1 hPa | 0 mm | - | 41 W/m² | - |
| 1777729942 | 7.22° C | 39% | 1027.1 hPa | 0 mm | - | 40 W/m² | - |
| 1777729637 | 6.67° C | 40% | 1027.1 hPa | 0 mm | - | 40 W/m² | - |
| 1777729335 | 6.67° C | 40% | 1026.9 hPa | 0 mm | - | 39 W/m² | - |
| 1777729031 | 6.67° C | 41% | 1027 hPa | 0 mm | - | 38 W/m² | - |
| 1777728723 | 6.11° C | 41% | 1026.7 hPa | 0 mm | - | 37 W/m² | - |
| 1777728419 | 6.11° C | 42% | 1026.7 hPa | 0 mm | - | 36 W/m² | - |
| 1777728116 | 5.56° C | 43% | 1026.7 hPa | 0 mm | - | 35 W/m² | - |
| 1777727813 | 5.56° C | 44% | 1026.9 hPa | 0 mm | - | 34 W/m² | - |
* Rain latest hour (hover to see other rain measurements)
** Current wind speed in m/s (hover to see current wind gust speed)